Location: Newark
(22.3060°N, 114.2134°E)
Time: 05:47:10
(UTC+00:00)

Vanguard 1 Rocket - Pass Details

Date: 03 August 2021
Orbit: 650 x 4226 km, 34.3° (Epoch: 23 September)

Event Time Altitude Azimuth Distance (km) Brightness Sun altitude
Rises 20:02:37 0° 191° (SSW) 7,412 11.7 -24.5°
Reaches altitude 10° 20:10:11 10° 175° (S) 6,907 11.6 -23.0°
Maximum altitude 20:25:32 20° 136° (SE) 6,560 11.9 -20.0°
Drops below altitude 10° 20:41:01 10° 98° (E) 7,165 12.7 -16.8°
Sets 20:48:42 0° 84° (E) 7,790 13.5 -15.2°
